Elkins, WV

5:38 PM EST on November 13, 2019 (GMT -0500)
Elkins-Randolph County

Weather History for KEKN - September, 2019

Change the Weather History Date:

Saturday, September 7, 2019

  Actual Average Record
Temperature  
Mean Temperature 66 °F 65 °F  
Max Temperature 75 °F 77 °F 90 °F (1899)
Min Temperature 56 °F 54 °F 36 °F (1924)
Degree Days  
Heating Degree Days 0 2  
Month to date heating degree days 0 12  
Since 1 July heating degree days 7 42  
Cooling Degree Days 0 2  
Month to date cooling degree days 37 19  
Year to date cooling degree days 708 445  
Growing Degree Days 16 (Base 50)    
Moisture  
Dew Point 57 °F    
Average Humidity 74    
Maximum Humidity 93    
Minimum Humidity 52    
Precipitation  
Precipitation 0.00 in 0.11 in 2.78 in (1998)
Month to date precipitation T 0.86  
Year to date precipitation 37.71 33.67  
Snow  
Snow 0.00 in 0.00 in 0.00 in (2017)
Month to date snowfall 0.0 0.0  
Since 1 September snowfall 0.0 0.0  
Snow Depth 0.00 in    
Sea Level Pressure  
Sea Level Pressure 29.99 in    
Wind  
Wind Speed 2 mph ()    
Max Wind Speed 13 mph    
Max Gust Speed 17 mph    
Visibility 9.8 miles    
Events      
T = Trace of Precipitation, MM = Missing Value Source: Averaged Metar Reports

Daily Weather History Graph

Daily Weather History Graph

Search for Another Location

Airport or City:

Astronomy

Sep. 07, 2019 Rise Set
Actual Time 6:53 AM EDT 7:40 PM EDT
Civil Twilight 6:26 AM EDT 8:07 PM EDT
Nautical Twilight 5:54 AM EDT 8:39 PM EDT
Astronomical Twilight 5:21 AM EDT 9:12 PM EDT
Moon 3:52 PM EDT (9/7) 12:46 AM EDT (9/7)
Length of Visible Light 13h 41m
Length of Day
12h 47m
Waxing Gibbous, 65% of the Moon is Illuminated
Sep 7
Waxing Gibbous
Sep 14
Full
Sep 21
Last Quarter
Sep 28
New
Oct 5
First Quarter

Hourly Weather History & Observations

Time (EDT) Temp. Dew Point Humidity Pressure Visibility Wind Dir Wind Speed Gust Speed Precip Events Conditions
12:51 AM 64.0 °F 59.0 °F 84% 29.91 in 10.0 mi Calm Calm - N/A   Overcast
1:51 AM 64.0 °F 60.1 °F 87% 29.91 in 10.0 mi Calm Calm - N/A   Overcast
2:51 AM 64.0 °F 59.0 °F 84% 29.90 in 10.0 mi Calm Calm - N/A   Overcast
3:51 AM 64.0 °F 59.0 °F 84% 29.90 in 10.0 mi Calm Calm - N/A   Overcast
4:51 AM 63.0 °F 59.0 °F 87% 29.90 in 10.0 mi Calm Calm - N/A   Overcast
5:51 AM 62.1 °F 57.9 °F 86% 29.93 in 10.0 mi Calm Calm - N/A   Overcast
6:51 AM 63.0 °F 59.0 °F 87% 29.95 in 10.0 mi Calm Calm - N/A   Overcast
7:51 AM 64.0 °F 59.0 °F 84% 29.97 in 10.0 mi Calm Calm - N/A   Overcast
8:51 AM 64.9 °F 57.9 °F 78% 29.99 in 10.0 mi Calm Calm - N/A   Overcast
9:22 AM 66.0 °F 57.0 °F 73% 30.02 in 10.0 mi WNW 4.6 mph - N/A   Overcast
9:51 AM 66.9 °F 57.0 °F 70% 30.00 in 10.0 mi Variable 3.5 mph - N/A   Overcast
10:51 AM 66.9 °F 55.0 °F 66% 30.01 in 10.0 mi WNW 5.8 mph - N/A   Overcast
11:51 AM 68.0 °F 55.9 °F 65% 30.01 in 10.0 mi NW 6.9 mph - N/A   Overcast
12:51 PM 71.1 °F 54.0 °F 55% 30.01 in 10.0 mi NNW 6.9 mph - N/A   Overcast
1:51 PM 73.0 °F 55.0 °F 53% 30.00 in 10.0 mi Variable 3.5 mph - N/A   Mostly Cloudy
2:51 PM 73.9 °F 55.0 °F 52% 29.99 in 10.0 mi NNW 8.1 mph - N/A   Mostly Cloudy
3:51 PM 73.0 °F 55.0 °F 53% 29.97 in 10.0 mi West 10.4 mph - N/A   Scattered Clouds
4:51 PM 73.0 °F 55.0 °F 53% 29.98 in 10.0 mi NW 9.2 mph - N/A   Mostly Cloudy
5:51 PM 71.1 °F 55.0 °F 57% 29.99 in 10.0 mi WNW 8.1 mph - N/A   Scattered Clouds
6:51 PM 71.1 °F 55.9 °F 59% 30.01 in 10.0 mi NW 5.8 mph - N/A   Mostly Cloudy
7:51 PM 62.1 °F 55.9 °F 80% 30.03 in 10.0 mi Calm Calm - N/A   Clear
8:51 PM 59.0 °F 55.0 °F 87% 30.05 in 10.0 mi Calm Calm - N/A   Clear
9:51 PM 57.9 °F 54.0 °F 87% 30.06 in 9.0 mi Calm Calm - N/A   Partly Cloudy
10:51 PM 57.0 °F 54.0 °F 89% 30.07 in 8.0 mi Calm Calm - N/A   Partly Cloudy
11:51 PM 57.9 °F 55.0 °F 90% 30.07 in 9.0 mi Calm Calm - N/A   Mostly Cloudy